This is the latest recevied weather packets stored in our database for station/object EA6AMI-5. If no packets are shown the sender has not sent any weather packets the latest 10 day(s).
| Time | Temp. | Humidity | Pressure | Rain* | Wind** | Luminosity | Snow |
|---|---|---|---|---|---|---|---|
| 1787815083 | 26.67° C | 79% | 1014 hPa | 0 mm | - | 94 W/m² | - |
| 1787814543 | 26.67° C | 79% | 1014 hPa | 0 mm | - | 102 W/m² | - |
| 1787814003 | 26.67° C | 79% | 1014.2 hPa | 0 mm | - | 96 W/m² | - |
| 1787813643 | 26.67° C | 79% | 1014.3 hPa | 0 mm | - | 51 W/m² | - |
| 1787813103 | 26.67° C | 79% | 1014.1 hPa | 0 mm | - | 65 W/m² | - |
| 1787812563 | 26.11° C | 79% | 1013.8 hPa | 0 mm | - | 54 W/m² | - |
| 1787812023 | 26.11° C | 79% | 1013.5 hPa | 0 mm | - | 32 W/m² | - |
| 1787811484 | 26.11° C | 79% | 1013.8 hPa | 0 mm | - | 52 W/m² | - |
| 1787810944 | 26.11° C | 80% | 1013.2 hPa | 0 mm | - | 30 W/m² | - |
| 1787810403 | 26.11° C | 80% | 1013 hPa | 0 mm | - | 18 W/m² | - |
| 1787810043 | 26.11° C | 80% | 1012.9 hPa | 0 mm | - | 12 W/m² | - |
| 1787809504 | 26.11° C | 79% | 1013.3 hPa | 0 mm | - | 5 W/m² | - |
| 1787808963 | 26.11° C | 78% | 1013 hPa | 0 mm | - | 4 W/m² | - |
| 1787808423 | 26.11° C | 78% | 1012 hPa | 0 mm | - | 3 W/m² | - |
| 1787807883 | 26.11° C | 79% | 1011.8 hPa | 0 mm | - | 2 W/m² | - |
| 1787807343 | 26.11° C | 78% | 1012.7 hPa | 0 mm | - | 1 W/m² | - |
| 1787806804 | 26.11° C | 77% | 1012.2 hPa | 0 mm | - | 0 W/m² | - |
| 1787806443 | 26.11° C | 78% | 1012.7 hPa | 0 mm | - | 0 W/m² | - |
| 1787805903 | 26.11° C | 81% | 1012.3 hPa | 0 mm | - | 0 W/m² | - |
| 1787805364 | 26.11° C | 84% | 1011.9 hPa | 0 mm | - | 0 W/m² | - |
| 1787804823 | 26.11° C | 87% | 1012 hPa | 0 mm | - | 0 W/m² | - |
| 1787804283 | 26.11° C | 86% | 1012.4 hPa | 0 mm | - | 0 W/m² | - |
| 1787803743 | 26.11° C | 85% | 1012.5 hPa | 0 mm | - | 0 W/m² | - |
| 1787803203 | 26.11° C | 84% | 1012.2 hPa | 0 mm | - | 0 W/m² | - |
| 1787802843 | 26.11° C | 84% | 1012.3 hPa | 0 mm | - | 0 W/m² | - |
* Rain latest hour (hover to see other rain measurements)
** Current wind speed in m/s (hover to see current wind gust speed)